Tracking 25711 objects as of 22-May-2022
HD Live streaming from Space Station
objects crossing your sky now

SL-8 R/B

Track SL-8 R/B now!
10-day predictions


NORAD ID: 24773
Int'l Code: 1997-017B
Perigee: 975.9 km
Apogee: 1,011.2 km
Inclination: 82.9 °
Period: 104.8 minutes
Semi major axis: 7364 km
RCS: 5.5844 m2 (large)
Launch date: April 17, 1997
Source: Commonwealth of Independent States (former USSR) (CIS)
Launch site: PLESETSK MISSILE AND SPACE COMPLEX (PKMTR)

Note: This is a ROCKET BODY
aabbcc
Your satellite tracking list
Your tracking list is empty




NASA's NSSDC Master Catalog

Two Line Element Set (TLE):
1 24773U 97017B   22142.46983019  .00000024  00000-0  10114-4 0  9995
2 24773  82.9187 119.1253 0023951 338.3419 135.1807 13.73684645257773
Source of the keplerian elements: AFSPC